Time,TemperatureF,DewpointF,PressureIn,WindDirection,WindDirectionDegrees,WindSpeedMPH,WindSpeedGustMPH,Humidity,HourlyPrecipIn,Conditions,Clouds,dailyrainin,SoftwareType,DateUTC
2013-06-15 00:00:00,74.8,65.1,29.95,East,90,0.0,2.0,72,0.00,,,0.00,meteohub,2013-06-15 05:00:00,
2013-06-15 00:05:00,74.8,65.1,29.95,East,83,0.0,3.0,72,0.00,,,0.00,meteohub,2013-06-15 05:05:00,
2013-06-15 00:10:00,74.7,65.1,29.95,ENE,62,0.0,3.0,72,0.00,,,0.00,meteohub,2013-06-15 05:10:00,
2013-06-15 00:16:00,74.7,65.1,29.96,ESE,111,1.0,3.0,72,0.00,,,0.00,meteohub,2013-06-15 05:16:00,
2013-06-15 00:21:00,74.7,65.5,29.96,East,101,0.0,2.0,73,0.00,,,0.00,meteohub,2013-06-15 05:21:00,
2013-06-15 00:26:00,74.5,65.3,29.96,East,100,0.0,2.0,73,0.00,,,0.00,meteohub,2013-06-15 05:26:00,
2013-06-15 00:31:00,74.5,65.3,29.96,East,100,1.0,1.0,73,0.00,,,0.00,meteohub,2013-06-15 05:31:00,
2013-06-15 00:36:00,74.3,65.1,29.96,East,100,0.0,1.0,73,0.00,,,0.00,meteohub,2013-06-15 05:36:00,
2013-06-15 00:41:00,74.1,64.9,29.96,East,100,0.0,1.0,73,0.00,,,0.00,meteohub,2013-06-15 05:41:00,
2013-06-15 00:46:00,74.1,64.9,29.95,East,100,0.0,1.0,73,0.00,,,0.00,meteohub,2013-06-15 05:46:00,
2013-06-15 00:51:00,73.9,64.8,29.96,East,100,0.0,1.0,73,0.00,,,0.00,meteohub,2013-06-15 05:51:00,
2013-06-15 00:56:00,73.9,65.1,29.96,East,100,0.0,1.0,74,0.00,,,0.00,meteohub,2013-06-15 05:56:00,
2013-06-15 01:01:00,73.8,64.9,29.95,East,100,0.0,1.0,74,0.00,,,0.00,meteohub,2013-06-15 06:01:00,
2013-06-15 01:07:00,73.6,64.8,29.95,East,100,0.0,1.0,74,0.00,,,0.00,meteohub,2013-06-15 06:07:00,
2013-06-15 01:12:00,73.4,64.9,29.95,East,100,0.0,1.0,75,0.00,,,0.00,meteohub,2013-06-15 06:12:00,
2013-06-15 01:17:00,73.2,64.4,29.95,East,100,0.0,1.0,74,0.00,,,0.00,meteohub,2013-06-15 06:17:00,
2013-06-15 01:22:00,73.2,64.8,29.94,East,100,0.0,1.0,75,0.00,,,0.00,meteohub,2013-06-15 06:22:00,
2013-06-15 01:27:00,73.0,64.6,29.94,East,100,0.0,1.0,75,0.00,,,0.00,meteohub,2013-06-15 06:27:00,
2013-06-15 01:32:00,73.0,64.6,29.95,East,87,0.0,1.0,75,0.00,,,0.00,meteohub,2013-06-15 06:32:00,
2013-06-15 01:37:00,72.9,64.4,29.95,East,87,0.0,2.0,75,0.00,,,0.00,meteohub,2013-06-15 06:37:00,
2013-06-15 01:42:00,72.9,64.4,29.95,East,87,1.0,2.0,75,0.00,,,0.00,meteohub,2013-06-15 06:42:00,
2013-06-15 01:47:00,72.7,64.8,29.94,East,87,0.0,1.0,76,0.00,,,0.00,meteohub,2013-06-15 06:47:00,
2013-06-15 01:52:00,72.7,64.8,29.94,East,87,0.0,1.0,76,0.00,,,0.00,meteohub,2013-06-15 06:52:00,
2013-06-15 01:57:00,72.7,64.8,29.94,East,87,0.0,1.0,76,0.00,,,0.00,meteohub,2013-06-15 06:57:00,
2013-06-15 02:02:00,72.5,64.6,29.94,East,87,0.0,1.0,76,0.00,,,0.00,meteohub,2013-06-15 07:02:00,
2013-06-15 02:07:00,72.5,64.6,29.94,East,87,0.0,1.0,76,0.00,,,0.00,meteohub,2013-06-15 07:07:00,
2013-06-15 02:12:00,72.5,64.6,29.94,East,87,0.0,1.0,76,0.00,,,0.00,meteohub,2013-06-15 07:12:00,
2013-06-15 02:17:00,72.3,64.4,29.95,East,87,0.0,1.0,76,0.00,,,0.00,meteohub,2013-06-15 07:17:00,
2013-06-15 02:22:00,72.3,64.4,29.94,East,87,0.0,1.0,76,0.00,,,0.00,meteohub,2013-06-15 07:22:00,
2013-06-15 02:27:00,72.1,64.2,29.94,East,87,0.0,1.0,76,0.00,,,0.00,meteohub,2013-06-15 07:27:00,
2013-06-15 02:32:00,72.1,64.2,29.94,East,87,0.0,0.0,76,0.00,,,0.00,meteohub,2013-06-15 07:32:00,
2013-06-15 02:37:00,72.1,64.6,29.94,East,87,0.0,0.0,77,0.00,,,0.00,meteohub,2013-06-15 07:37:00,
2013-06-15 02:42:00,72.0,64.8,29.94,East,87,0.0,1.0,78,0.00,,,0.00,meteohub,2013-06-15 07:42:00,
2013-06-15 02:47:00,72.0,64.4,29.94,East,87,0.0,1.0,77,0.00,,,0.00,meteohub,2013-06-15 07:47:00,
2013-06-15 02:52:00,72.0,64.4,29.95,East,87,0.0,1.0,77,0.00,,,0.00,meteohub,2013-06-15 07:52:00,
2013-06-15 02:57:00,71.8,64.6,29.95,East,87,0.0,1.0,78,0.00,,,0.00,meteohub,2013-06-15 07:57:00,
2013-06-15 03:02:00,71.6,64.4,29.95,East,87,0.0,0.0,78,0.00,,,0.00,meteohub,2013-06-15 08:02:00,
2013-06-15 03:07:00,71.2,64.4,29.94,East,87,0.0,0.0,79,0.00,,,0.00,meteohub,2013-06-15 08:07:00,
2013-06-15 03:12:00,71.2,64.4,29.95,East,87,0.0,1.0,79,0.00,,,0.00,meteohub,2013-06-15 08:12:00,
2013-06-15 03:17:00,71.2,64.8,29.95,East,87,0.0,1.0,80,0.00,,,0.00,meteohub,2013-06-15 08:17:00,
2013-06-15 03:22:00,71.2,64.8,29.94,ESE,104,0.0,2.0,80,0.00,,,0.00,meteohub,2013-06-15 08:22:00,
2013-06-15 03:27:00,71.1,64.6,29.95,ESE,104,0.0,2.0,80,0.00,,,0.00,meteohub,2013-06-15 08:27:00,
2013-06-15 03:32:00,71.1,64.6,29.95,ESE,104,0.0,2.0,80,0.00,,,0.00,meteohub,2013-06-15 08:32:00,
2013-06-15 03:37:00,71.1,64.6,29.94,East,80,0.0,2.0,80,0.00,,,0.00,meteohub,2013-06-15 08:37:00,
2013-06-15 03:42:00,71.1,64.6,29.95,East,81,0.0,2.0,80,0.00,,,0.00,meteohub,2013-06-15 08:42:00,
2013-06-15 03:47:00,70.9,64.4,29.95,East,81,0.0,2.0,80,0.00,,,0.00,meteohub,2013-06-15 08:47:00,
2013-06-15 03:52:00,70.9,64.4,29.95,East,81,0.0,1.0,80,0.00,,,0.00,meteohub,2013-06-15 08:52:00,
2013-06-15 03:57:00,70.9,64.8,29.95,East,81,0.0,2.0,81,0.00,,,0.00,meteohub,2013-06-15 08:57:00,
2013-06-15 04:02:00,70.9,64.4,29.95,East,82,0.0,2.0,80,0.00,,,0.00,meteohub,2013-06-15 09:02:00,
2013-06-15 04:07:00,70.9,64.8,29.95,East,94,0.0,2.0,81,0.00,,,0.00,meteohub,2013-06-15 09:07:00,
2013-06-15 04:12:00,70.9,64.8,29.96,East,94,0.0,2.0,81,0.00,,,0.00,meteohub,2013-06-15 09:12:00,
2013-06-15 04:17:00,70.9,64.8,29.96,East,94,1.0,2.0,81,0.00,,,0.00,meteohub,2013-06-15 09:17:00,
2013-06-15 04:22:00,70.9,64.8,29.96,East,91,0.0,2.0,81,0.00,,,0.00,meteohub,2013-06-15 09:22:00,
2013-06-15 04:27:00,70.9,64.8,29.96,East,83,1.0,2.0,81,0.00,,,0.00,meteohub,2013-06-15 09:27:00,
2013-06-15 04:32:00,71.1,64.6,29.96,East,93,1.0,4.0,80,0.00,,,0.00,meteohub,2013-06-15 09:32:00,
2013-06-15 04:37:00,71.2,65.1,29.96,ENE,70,3.0,5.0,81,0.00,,,0.00,meteohub,2013-06-15 09:37:00,
2013-06-15 04:42:00,71.4,64.9,29.96,East,100,1.0,6.0,80,0.00,,,0.00,meteohub,2013-06-15 09:42:00,
2013-06-15 04:47:00,71.8,64.9,29.96,East,99,3.0,6.0,79,0.00,,,0.00,meteohub,2013-06-15 09:47:00,
2013-06-15 04:52:00,71.8,64.9,29.96,East,87,3.0,6.0,79,0.00,,,0.00,meteohub,2013-06-15 09:52:00,
2013-06-15 04:57:00,71.8,64.9,29.97,ESE,102,4.0,6.0,79,0.00,,,0.00,meteohub,2013-06-15 09:57:00,
2013-06-15 05:02:00,71.8,65.3,29.97,East,91,6.0,7.0,80,0.00,,,0.00,meteohub,2013-06-15 10:02:00,
2013-06-15 05:07:00,71.8,65.3,29.97,East,96,6.0,7.0,80,0.00,,,0.00,meteohub,2013-06-15 10:07:00,
2013-06-15 05:12:00,71.8,65.3,29.98,ENE,78,3.0,7.0,80,0.00,,,0.00,meteohub,2013-06-15 10:12:00,
2013-06-15 05:17:00,71.6,65.5,29.98,East,89,3.0,7.0,81,0.00,,,0.00,meteohub,2013-06-15 10:17:00,
2013-06-15 05:22:00,71.6,65.5,29.98,ENE,77,2.0,7.0,81,0.00,,,0.00,meteohub,2013-06-15 10:22:00,
2013-06-15 05:27:00,71.4,65.3,29.98,East,97,3.0,7.0,81,0.00,,,0.00,meteohub,2013-06-15 10:27:00,
2013-06-15 05:32:00,71.4,65.7,29.98,East,95,6.0,7.0,82,0.00,,,0.00,meteohub,2013-06-15 10:32:00,
2013-06-15 05:37:00,71.4,65.7,29.99,East,80,3.0,7.0,82,0.00,,,0.00,meteohub,2013-06-15 10:37:00,
2013-06-15 05:42:00,71.4,65.7,29.99,East,97,2.0,7.0,82,0.00,,,0.00,meteohub,2013-06-15 10:42:00,
2013-06-15 05:47:00,71.4,65.7,29.99,East,87,3.0,7.0,82,0.00,,,0.00,meteohub,2013-06-15 10:47:00,
2013-06-15 05:52:00,71.4,66.0,29.99,East,89,6.0,7.0,83,0.00,,,0.00,meteohub,2013-06-15 10:52:00,
2013-06-15 05:57:00,71.4,66.0,30.00,NE,45,3.0,7.0,83,0.00,,,0.00,meteohub,2013-06-15 10:57:00,
2013-06-15 06:02:00,71.4,66.0,30.00,East,79,3.0,7.0,83,0.00,,,0.00,meteohub,2013-06-15 11:02:00,
2013-06-15 06:07:00,71.4,66.4,30.00,East,86,2.0,6.0,84,0.00,,,0.00,meteohub,2013-06-15 11:07:00,
2013-06-15 06:12:00,71.4,66.4,30.00,East,81,2.0,6.0,84,0.00,,,0.00,meteohub,2013-06-15 11:12:00,
2013-06-15 06:17:00,71.6,66.6,30.00,ENE,78,3.0,6.0,84,0.00,,,0.00,meteohub,2013-06-15 11:17:00,
2013-06-15 06:22:00,71.8,66.7,30.00,ENE,66,4.0,7.0,84,0.00,,,0.00,meteohub,2013-06-15 11:22:00,
2013-06-15 06:27:00,71.8,66.7,29.99,East,90,3.0,8.0,84,0.00,,,0.00,meteohub,2013-06-15 11:27:00,
2013-06-15 06:32:00,72.0,66.9,30.00,East,85,6.0,8.0,84,0.00,,,0.00,meteohub,2013-06-15 11:32:00,
2013-06-15 06:37:00,72.1,67.1,29.99,East,95,6.0,8.0,84,0.00,,,0.00,meteohub,2013-06-15 11:37:00,
2013-06-15 06:42:00,72.5,67.5,30.00,East,89,5.0,8.0,84,0.00,,,0.00,meteohub,2013-06-15 11:42:00,
2013-06-15 06:47:00,72.9,67.8,30.00,ESE,102,4.0,9.0,84,0.00,,,0.00,meteohub,2013-06-15 11:47:00,
2013-06-15 06:52:00,72.9,67.8,30.00,East,91,5.0,9.0,84,0.00,,,0.00,meteohub,2013-06-15 11:52:00,
2013-06-15 06:57:00,73.0,68.0,30.00,East,83,6.0,9.0,84,0.00,,,0.00,meteohub,2013-06-15 11:57:00,
2013-06-15 07:02:00,73.2,68.4,30.00,East,90,3.0,9.0,85,0.00,,,0.00,meteohub,2013-06-15 12:02:00,
2013-06-15 07:07:00,73.4,68.2,30.00,ENE,68,7.0,9.0,84,0.00,,,0.00,meteohub,2013-06-15 12:07:00,
2013-06-15 07:12:00,73.6,68.4,30.01,East,87,7.0,11.0,84,0.00,,,0.00,meteohub,2013-06-15 12:12:00,
2013-06-15 07:17:00,73.9,68.7,30.01,East,81,10.0,11.0,84,0.00,,,0.00,meteohub,2013-06-15 12:17:00,
2013-06-15 07:22:00,74.3,68.7,30.01,East,88,7.0,10.0,83,0.00,,,0.00,meteohub,2013-06-15 12:22:00,
2013-06-15 07:27:00,74.5,68.9,30.01,East,83,7.0,10.0,83,0.00,,,0.00,meteohub,2013-06-15 12:27:00,
2013-06-15 07:32:00,74.7,69.1,30.01,ESE,119,7.0,10.0,83,0.00,,,0.00,meteohub,2013-06-15 12:32:00,
2013-06-15 07:37:00,74.8,69.3,30.01,East,85,6.0,13.0,83,0.00,,,0.00,meteohub,2013-06-15 12:37:00,
2013-06-15 07:42:00,75.4,69.8,30.02,ESE,106,4.0,13.0,83,0.00,,,0.00,meteohub,2013-06-15 12:42:00,
2013-06-15 07:47:00,75.6,70.0,30.02,East,90,5.0,13.0,83,0.00,,,0.00,meteohub,2013-06-15 12:47:00,
2013-06-15 07:52:00,75.7,69.8,30.02,East,83,7.0,11.0,82,0.00,,,0.00,meteohub,2013-06-15 12:52:00,
2013-06-15 07:57:00,75.7,70.2,30.02,East,91,5.0,10.0,83,0.00,,,0.00,meteohub,2013-06-15 12:57:00,
2013-06-15 08:02:00,75.9,70.0,30.03,East,95,7.0,13.0,82,0.00,,,0.00,meteohub,2013-06-15 13:02:00,
2013-06-15 08:07:00,76.5,70.5,30.03,East,81,6.0,13.0,82,0.00,,,0.00,meteohub,2013-06-15 13:07:00,
2013-06-15 08:12:00,76.8,70.5,30.03,ENE,74,9.0,10.0,81,0.00,,,0.00,meteohub,2013-06-15 13:12:00,
2013-06-15 08:17:00,77.2,70.9,30.03,ESE,118,3.0,11.0,81,0.00,,,0.00,meteohub,2013-06-15 13:17:00,
2013-06-15 08:22:00,77.7,71.1,30.03,East,96,6.0,11.0,80,0.00,,,0.00,meteohub,2013-06-15 13:22:00,
2013-06-15 08:27:00,77.9,71.2,30.04,East,83,3.0,11.0,80,0.00,,,0.00,meteohub,2013-06-15 13:27:00,
2013-06-15 08:32:00,78.4,71.4,30.04,SE,139,4.0,11.0,79,0.00,,,0.00,meteohub,2013-06-15 13:32:00,
2013-06-15 08:37:00,79.2,71.8,30.04,East,89,9.0,13.0,78,0.00,,,0.00,meteohub,2013-06-15 13:37:00,
2013-06-15 08:42:00,79.3,72.0,30.04,East,89,8.0,13.0,78,0.00,,,0.00,meteohub,2013-06-15 13:42:00,
2013-06-15 08:47:00,79.7,71.8,30.04,ESE,117,5.0,13.0,77,0.00,,,0.00,meteohub,2013-06-15 13:47:00,
2013-06-15 08:52:00,79.9,71.2,30.04,SSE,147,6.0,13.0,75,0.00,,,0.00,meteohub,2013-06-15 13:52:00,
2013-06-15 08:57:00,80.2,72.0,30.04,ESE,112,0.0,13.0,76,0.00,,,0.00,meteohub,2013-06-15 13:57:00,
2013-06-15 09:02:00,80.6,72.0,30.04,SE,129,5.0,14.0,75,0.00,,,0.00,meteohub,2013-06-15 14:02:00,
2013-06-15 09:07:00,81.0,71.4,30.04,East,95,5.0,14.0,73,0.00,,,0.00,meteohub,2013-06-15 14:07:00,
2013-06-15 09:12:00,81.1,71.6,30.04,ESE,111,5.0,14.0,73,0.00,,,0.00,meteohub,2013-06-15 14:12:00,
2013-06-15 09:17:00,81.3,71.4,30.04,ESE,112,7.0,10.0,72,0.00,,,0.00,meteohub,2013-06-15 14:17:00,
2013-06-15 09:22:00,81.3,71.1,30.04,East,88,5.0,10.0,71,0.00,,,0.00,meteohub,2013-06-15 14:22:00,
2013-06-15 09:27:00,81.5,71.2,30.04,East,99,6.0,11.0,71,0.00,,,0.00,meteohub,2013-06-15 14:27:00,
2013-06-15 09:32:00,81.7,71.4,30.04,SE,134,3.0,11.0,71,0.00,,,0.00,meteohub,2013-06-15 14:32:00,
2013-06-15 09:37:00,82.0,71.8,30.04,ENE,70,3.0,11.0,71,0.00,,,0.00,meteohub,2013-06-15 14:37:00,
2013-06-15 09:42:00,82.2,71.4,30.04,SE,134,4.0,11.0,70,0.00,,,0.00,meteohub,2013-06-15 14:42:00,
2013-06-15 09:47:00,82.2,72.0,30.04,SE,134,2.0,11.0,71,0.00,,,0.00,meteohub,2013-06-15 14:47:00,
2013-06-15 09:52:00,82.2,72.3,30.04,SE,138,0.0,11.0,72,0.00,,,0.00,meteohub,2013-06-15 14:52:00,
2013-06-15 09:57:00,82.6,71.8,30.04,ENE,71,3.0,11.0,70,0.00,,,0.00,meteohub,2013-06-15 14:57:00,
2013-06-15 10:02:00,82.8,71.6,30.04,ESE,118,4.0,11.0,69,0.00,,,0.00,meteohub,2013-06-15 15:02:00,
2013-06-15 10:07:00,83.1,72.0,30.04,SE,133,5.0,11.0,69,0.00,,,0.00,meteohub,2013-06-15 15:07:00,
2013-06-15 10:12:00,83.7,72.3,30.04,East,92,5.0,11.0,69,0.00,,,0.00,meteohub,2013-06-15 15:12:00,
2013-06-15 10:17:00,83.8,71.8,30.04,ESE,110,3.0,9.0,67,0.00,,,0.00,meteohub,2013-06-15 15:17:00,
2013-06-15 10:22:00,84.4,72.1,30.04,SE,141,9.0,13.0,67,0.00,,,0.00,meteohub,2013-06-15 15:22:00,
2013-06-15 10:27:00,84.6,72.0,30.04,East,90,8.0,13.0,66,0.00,,,0.00,meteohub,2013-06-15 15:27:00,
2013-06-15 10:32:00,84.4,72.1,30.04,ENE,75,10.0,10.0,67,0.00,,,0.00,meteohub,2013-06-15 15:32:00,
2013-06-15 10:37:00,84.0,72.3,30.04,ESE,112,5.0,11.0,68,0.00,,,0.00,meteohub,2013-06-15 15:37:00,
2013-06-15 10:42:00,84.2,72.0,30.04,ESE,122,8.0,11.0,67,0.00,,,0.00,meteohub,2013-06-15 15:42:00,
2013-06-15 10:47:00,84.4,72.1,30.04,ENE,68,7.0,11.0,67,0.00,,,0.00,meteohub,2013-06-15 15:47:00,
2013-06-15 10:52:00,84.6,74.1,30.04,East,88,7.0,13.0,71,0.00,,,0.00,meteohub,2013-06-15 15:52:00,
2013-06-15 10:57:00,84.9,72.3,30.04,East,79,9.0,13.0,66,0.00,,,0.00,meteohub,2013-06-15 15:57:00,
2013-06-15 11:02:00,84.9,72.3,30.04,ESE,105,1.0,13.0,66,0.00,,,0.00,meteohub,2013-06-15 16:02:00,
2013-06-15 11:07:00,85.3,73.0,30.04,ESE,116,2.0,10.0,67,0.00,,,0.00,meteohub,2013-06-15 16:07:00,
2013-06-15 11:12:00,85.5,72.9,30.04,SE,130,3.0,10.0,66,0.00,,,0.00,meteohub,2013-06-15 16:12:00,
2013-06-15 11:17:00,85.6,74.3,30.04,East,100,5.0,11.0,69,0.00,,,0.00,meteohub,2013-06-15 16:17:00,
2013-06-15 11:22:00,86.0,72.9,30.04,ESE,110,1.0,11.0,65,0.00,,,0.00,meteohub,2013-06-15 16:22:00,
2013-06-15 11:27:00,85.8,72.7,30.04,ESE,113,1.0,11.0,65,0.00,,,0.00,meteohub,2013-06-15 16:27:00,
2013-06-15 11:32:00,85.8,73.2,30.04,ESE,114,2.0,10.0,66,0.00,,,0.00,meteohub,2013-06-15 16:32:00,
2013-06-15 11:37:00,86.4,74.1,30.04,ESE,106,0.0,10.0,67,0.00,,,0.00,meteohub,2013-06-15 16:37:00,
2013-06-15 11:42:00,86.7,73.6,30.04,ENE,64,3.0,10.0,65,0.00,,,0.00,meteohub,2013-06-15 16:42:00,
2013-06-15 11:47:00,86.7,73.0,30.04,ESE,110,2.0,8.0,64,0.00,,,0.00,meteohub,2013-06-15 16:47:00,
2013-06-15 11:52:00,86.5,73.4,30.04,ENE,74,4.0,9.0,65,0.00,,,0.00,meteohub,2013-06-15 16:52:00,
2013-06-15 11:57:00,86.5,74.3,30.04,ESE,102,5.0,9.0,67,0.00,,,0.00,meteohub,2013-06-15 16:57:00,
2013-06-15 12:02:00,87.1,74.8,30.04,East,90,2.0,9.0,67,0.00,,,0.00,meteohub,2013-06-15 17:02:00,
2013-06-15 12:07:00,87.3,73.0,30.03,SE,143,2.0,9.0,63,0.00,,,0.00,meteohub,2013-06-15 17:07:00,
2013-06-15 12:12:00,87.3,73.6,30.03,East,93,7.0,15.0,64,0.00,,,0.00,meteohub,2013-06-15 17:12:00,
2013-06-15 12:17:00,86.5,72.9,30.03,ENE,69,2.0,15.0,64,0.00,,,0.00,meteohub,2013-06-15 17:17:00,
2013-06-15 12:22:00,86.7,72.1,30.03,ESE,110,2.0,15.0,62,0.00,,,0.00,meteohub,2013-06-15 17:22:00,
2013-06-15 12:27:00,87.3,73.0,30.03,East,95,2.0,9.0,63,0.00,,,0.00,meteohub,2013-06-15 17:27:00,
2013-06-15 12:32:00,87.6,73.4,30.03,East,85,3.0,9.0,63,0.00,,,0.00,meteohub,2013-06-15 17:32:00,
2013-06-15 12:37:00,88.0,73.4,30.02,East,84,3.0,8.0,62,0.00,,,0.00,meteohub,2013-06-15 17:37:00,
2013-06-15 12:42:00,87.4,73.8,30.02,East,80,6.0,8.0,64,0.00,,,0.00,meteohub,2013-06-15 17:42:00,
2013-06-15 12:47:00,87.1,72.5,30.02,ESE,105,8.0,9.0,62,0.00,,,0.00,meteohub,2013-06-15 17:47:00,
2013-06-15 12:52:00,86.2,72.5,30.02,East,89,5.0,10.0,64,0.00,,,0.00,meteohub,2013-06-15 17:52:00,
2013-06-15 12:57:00,86.7,72.7,30.02,East,81,2.0,10.0,63,0.00,,,0.00,meteohub,2013-06-15 17:57:00,
2013-06-15 13:02:00,87.3,72.7,30.02,ESE,111,0.0,9.0,62,0.00,,,0.00,meteohub,2013-06-15 18:02:00,
2013-06-15 13:07:00,87.6,71.1,30.02,SE,125,3.0,7.0,58,0.00,,,0.00,meteohub,2013-06-15 18:07:00,
2013-06-15 13:12:00,87.6,72.0,30.02,East,91,6.0,6.0,60,0.00,,,0.00,meteohub,2013-06-15 18:12:00,
2013-06-15 13:17:00,87.4,72.3,30.02,East,92,8.0,10.0,61,0.00,,,0.00,meteohub,2013-06-15 18:17:00,
2013-06-15 13:22:00,87.6,72.0,30.02,ENE,62,3.0,11.0,60,0.00,,,0.00,meteohub,2013-06-15 18:22:00,
2013-06-15 13:27:00,88.5,73.4,30.02,South,185,1.0,11.0,61,0.00,,,0.00,meteohub,2013-06-15 18:27:00,
2013-06-15 13:32:00,89.1,72.9,30.02,East,81,7.0,11.0,59,0.00,,,0.00,meteohub,2013-06-15 18:32:00,
2013-06-15 13:37:00,89.1,71.8,30.02,SE,131,5.0,9.0,57,0.00,,,0.00,meteohub,2013-06-15 18:37:00,
2013-06-15 13:42:00,88.9,72.7,30.02,ESE,122,1.0,10.0,59,0.00,,,0.00,meteohub,2013-06-15 18:42:00,
2013-06-15 13:47:00,89.1,72.3,30.02,ESE,118,1.0,10.0,58,0.00,,,0.00,meteohub,2013-06-15 18:47:00,
2013-06-15 13:52:00,89.2,72.0,30.02,ESE,103,2.0,10.0,57,0.00,,,0.00,meteohub,2013-06-15 18:52:00,
2013-06-15 13:57:00,89.1,70.7,30.02,East,100,1.0,6.0,55,0.00,,,0.00,meteohub,2013-06-15 18:57:00,
2013-06-15 14:02:00,88.9,71.1,30.02,East,84,2.0,11.0,56,0.00,,,0.00,meteohub,2013-06-15 19:02:00,
2013-06-15 14:07:00,88.2,71.1,30.02,NE,35,1.0,11.0,57,0.00,,,0.00,meteohub,2013-06-15 19:07:00,
2013-06-15 14:12:00,88.2,71.1,30.01,ESE,112,0.0,9.0,57,0.00,,,0.00,meteohub,2013-06-15 19:12:00,
2013-06-15 14:18:00,88.3,71.2,30.01,East,83,6.0,6.0,57,0.00,,,0.00,meteohub,2013-06-15 19:18:00,
2013-06-15 14:23:00,88.0,70.3,30.01,East,79,2.0,7.0,56,0.00,,,0.00,meteohub,2013-06-15 19:23:00,
2013-06-15 14:28:00,88.2,71.1,30.01,East,82,2.0,9.0,57,0.00,,,0.00,meteohub,2013-06-15 19:28:00,
2013-06-15 14:33:00,89.1,71.2,30.01,ESE,102,7.0,9.0,56,0.00,,,0.00,meteohub,2013-06-15 19:33:00,
2013-06-15 14:38:00,89.4,71.1,30.01,ESE,108,2.0,10.0,55,0.00,,,0.00,meteohub,2013-06-15 19:38:00,
2013-06-15 14:43:00,89.8,71.4,30.01,East,81,6.0,10.0,55,0.00,,,0.00,meteohub,2013-06-15 19:43:00,
2013-06-15 14:48:00,89.6,70.2,30.01,ENE,71,3.0,10.0,53,0.00,,,0.00,meteohub,2013-06-15 19:48:00,
2013-06-15 14:53:00,89.8,70.3,30.01,ENE,59,1.0,9.0,53,0.00,,,0.00,meteohub,2013-06-15 19:53:00,
2013-06-15 14:58:00,90.0,71.6,30.01,ENE,73,3.0,9.0,55,0.00,,,0.00,meteohub,2013-06-15 19:58:00,
2013-06-15 15:03:00,90.5,70.5,30.01,ESE,110,3.0,7.0,52,0.00,,,0.00,meteohub,2013-06-15 20:03:00,
2013-06-15 15:09:00,90.7,70.0,30.01,South,169,0.0,7.0,51,0.00,,,0.00,meteohub,2013-06-15 20:09:00,
2013-06-15 15:14:00,90.9,70.9,30.01,East,85,3.0,7.0,52,0.00,,,0.00,meteohub,2013-06-15 20:14:00,
2013-06-15 15:19:00,90.9,68.5,30.01,East,83,6.0,6.0,48,0.00,,,0.00,meteohub,2013-06-15 20:19:00,
2013-06-15 15:24:00,90.1,68.9,30.01,East,98,1.0,8.0,50,0.00,,,0.00,meteohub,2013-06-15 20:24:00,
2013-06-15 15:29:00,90.0,70.0,30.00,East,89,6.0,8.0,52,0.00,,,0.00,meteohub,2013-06-15 20:29:00,
2013-06-15 15:34:00,89.4,69.4,30.00,ESE,102,3.0,8.0,52,0.00,,,0.00,meteohub,2013-06-15 20:34:00,
2013-06-15 15:39:00,88.7,68.7,30.00,East,87,5.0,9.0,52,0.00,,,0.00,meteohub,2013-06-15 20:39:00,
2013-06-15 15:44:00,89.1,69.6,30.00,East,83,3.0,9.0,53,0.00,,,0.00,meteohub,2013-06-15 20:44:00,
2013-06-15 15:49:00,89.6,69.1,30.00,SE,127,5.0,9.0,51,0.00,,,0.00,meteohub,2013-06-15 20:49:00,
2013-06-15 15:54:00,90.1,70.2,29.99,ESE,116,2.0,9.0,52,0.00,,,0.00,meteohub,2013-06-15 20:54:00,
2013-06-15 16:00:00,90.3,69.8,29.99,East,93,3.0,7.0,51,0.00,,,0.00,meteohub,2013-06-15 21:00:00,
2013-06-15 16:05:00,90.0,69.4,29.99,ESE,103,4.0,7.0,51,0.00,,,0.00,meteohub,2013-06-15 21:05:00,
2013-06-15 16:10:00,90.0,71.1,29.99,East,96,7.0,11.0,54,0.00,,,0.00,meteohub,2013-06-15 21:10:00,
2013-06-15 16:15:00,89.8,68.0,29.99,East,88,8.0,11.0,49,0.00,,,0.00,meteohub,2013-06-15 21:15:00,
2013-06-15 16:20:00,89.4,68.4,29.99,ENE,78,5.0,11.0,50,0.00,,,0.00,meteohub,2013-06-15 21:20:00,
2013-06-15 16:25:00,89.8,70.9,29.99,East,100,3.0,11.0,54,0.00,,,0.00,meteohub,2013-06-15 21:25:00,
2013-06-15 16:30:00,90.0,69.4,29.99,ENE,60,3.0,10.0,51,0.00,,,0.00,meteohub,2013-06-15 21:30:00,
2013-06-15 16:35:00,90.1,68.4,29.99,ESE,109,3.0,8.0,49,0.00,,,0.00,meteohub,2013-06-15 21:35:00,
2013-06-15 16:40:00,90.3,68.5,29.99,ENE,57,1.0,8.0,49,0.00,,,0.00,meteohub,2013-06-15 21:40:00,
2013-06-15 16:45:00,90.1,69.6,29.99,ENE,67,5.0,8.0,51,0.00,,,0.00,meteohub,2013-06-15 21:45:00,
2013-06-15 16:50:00,90.0,68.9,29.99,ESE,121,3.0,8.0,50,0.00,,,0.00,meteohub,2013-06-15 21:50:00,
2013-06-15 16:56:00,90.1,68.9,29.99,ENE,57,2.0,8.0,50,0.00,,,0.00,meteohub,2013-06-15 21:56:00,
2013-06-15 17:01:00,90.0,68.9,29.99,SE,145,3.0,8.0,50,0.00,,,0.00,meteohub,2013-06-15 22:01:00,
2013-06-15 17:06:00,90.0,70.5,29.99,East,81,2.0,8.0,53,0.00,,,0.00,meteohub,2013-06-15 22:06:00,
2013-06-15 17:11:00,89.8,69.8,29.99,East,82,7.0,7.0,52,0.00,,,0.00,meteohub,2013-06-15 22:11:00,
2013-06-15 17:16:00,89.1,69.6,29.99,East,83,5.0,8.0,53,0.00,,,0.00,meteohub,2013-06-15 22:16:00,
2013-06-15 17:21:00,89.4,69.4,29.99,East,86,2.0,8.0,52,0.00,,,0.00,meteohub,2013-06-15 22:21:00,
2013-06-15 17:26:00,89.6,69.1,29.98,ESE,114,2.0,8.0,51,0.00,,,0.00,meteohub,2013-06-15 22:26:00,
2013-06-15 17:31:00,90.0,70.0,29.98,ESE,106,0.0,7.0,52,0.00,,,0.00,meteohub,2013-06-15 22:31:00,
2013-06-15 17:36:00,90.1,69.6,29.98,SE,131,0.0,7.0,51,0.00,,,0.00,meteohub,2013-06-15 22:36:00,
2013-06-15 17:41:00,90.1,70.2,29.98,East,90,2.0,5.0,52,0.00,,,0.00,meteohub,2013-06-15 22:41:00,
2013-06-15 17:47:00,89.8,69.3,29.98,ENE,58,3.0,8.0,51,0.00,,,0.00,meteohub,2013-06-15 22:47:00,
2013-06-15 17:52:00,89.6,69.1,29.98,ENE,65,2.0,9.0,51,0.00,,,0.00,meteohub,2013-06-15 22:52:00,
2013-06-15 17:57:00,89.4,68.9,29.98,SSE,162,2.0,10.0,51,0.00,,,0.00,meteohub,2013-06-15 22:57:00,
2013-06-15 18:02:00,89.1,69.1,29.98,ENE,77,1.0,10.0,52,0.00,,,0.00,meteohub,2013-06-15 23:02:00,
2013-06-15 18:07:00,88.7,68.7,29.98,East,91,3.0,8.0,52,0.00,,,0.00,meteohub,2013-06-15 23:07:00,
2013-06-15 18:12:00,88.5,69.3,29.98,East,93,1.0,8.0,53,0.00,,,0.00,meteohub,2013-06-15 23:12:00,
2013-06-15 18:17:00,88.9,69.6,29.98,ESE,110,1.0,7.0,53,0.00,,,0.00,meteohub,2013-06-15 23:17:00,
2013-06-15 18:22:00,88.9,70.2,29.98,East,86,3.0,7.0,54,0.00,,,0.00,meteohub,2013-06-15 23:22:00,
2013-06-15 18:27:00,88.3,70.2,29.98,NE,56,1.0,5.0,55,0.00,,,0.00,meteohub,2013-06-15 23:27:00,
2013-06-15 18:32:00,87.6,70.0,29.99,ENE,57,0.0,5.0,56,0.00,,,0.00,meteohub,2013-06-15 23:32:00,
2013-06-15 18:37:00,87.4,69.8,29.99,ENE,72,1.0,4.0,56,0.00,,,0.00,meteohub,2013-06-15 23:37:00,
2013-06-15 18:42:00,87.3,70.2,29.99,East,96,0.0,3.0,57,0.00,,,0.00,meteohub,2013-06-15 23:42:00,
2013-06-15 18:47:00,87.1,70.0,29.99,ENE,67,1.0,3.0,57,0.00,,,0.00,meteohub,2013-06-15 23:47:00,
2013-06-15 18:52:00,86.9,69.8,29.98,East,79,1.0,6.0,57,0.00,,,0.00,meteohub,2013-06-15 23:52:00,
2013-06-15 18:57:00,86.7,69.6,29.99,East,85,1.0,6.0,57,0.00,,,0.00,meteohub,2013-06-15 23:57:00,
2013-06-15 19:02:00,86.7,69.6,29.98,ENE,60,3.0,5.0,57,0.00,,,0.00,meteohub,2013-06-16 00:02:00,
2013-06-15 19:07:00,86.5,70.0,29.99,ENE,67,1.0,6.0,58,0.00,,,0.00,meteohub,2013-06-16 00:07:00,
2013-06-15 19:12:00,86.2,69.6,29.99,ENE,62,1.0,6.0,58,0.00,,,0.00,meteohub,2013-06-16 00:12:00,
2013-06-15 19:17:00,86.2,70.2,29.99,East,99,2.0,5.0,59,0.00,,,0.00,meteohub,2013-06-16 00:17:00,
2013-06-15 19:22:00,85.8,69.8,29.99,ESE,103,1.0,3.0,59,0.00,,,0.00,meteohub,2013-06-16 00:22:00,
2013-06-15 19:27:00,85.6,70.2,29.99,ENE,75,2.0,3.0,60,0.00,,,0.00,meteohub,2013-06-16 00:27:00,
2013-06-15 19:32:00,85.3,70.3,29.99,East,91,2.0,6.0,61,0.00,,,0.00,meteohub,2013-06-16 00:32:00,
2013-06-15 19:37:00,85.1,70.2,29.99,East,101,2.0,6.0,61,0.00,,,0.00,meteohub,2013-06-16 00:37:00,
2013-06-15 19:42:00,84.9,70.5,29.99,East,84,3.0,6.0,62,0.00,,,0.00,meteohub,2013-06-16 00:42:00,
2013-06-15 19:47:00,84.7,70.3,29.99,East,88,2.0,7.0,62,0.00,,,0.00,meteohub,2013-06-16 00:47:00,
2013-06-15 19:52:00,84.7,70.3,29.99,East,86,1.0,7.0,62,0.00,,,0.00,meteohub,2013-06-16 00:52:00,
2013-06-15 19:57:00,84.6,70.5,29.99,ENE,68,1.0,5.0,63,0.00,,,0.00,meteohub,2013-06-16 00:57:00,
2013-06-15 20:02:00,84.4,70.3,29.99,East,97,1.0,5.0,63,0.00,,,0.00,meteohub,2013-06-16 01:02:00,
2013-06-15 20:07:00,84.2,70.2,29.99,East,99,2.0,5.0,63,0.00,,,0.00,meteohub,2013-06-16 01:07:00,
2013-06-15 20:12:00,83.8,70.3,29.99,East,88,5.0,5.0,64,0.00,,,0.00,meteohub,2013-06-16 01:12:00,
2013-06-15 20:17:00,83.8,70.3,29.99,ENE,78,3.0,5.0,64,0.00,,,0.00,meteohub,2013-06-16 01:17:00,
2013-06-15 20:22:00,83.7,71.1,29.99,East,81,3.0,6.0,66,0.00,,,0.00,meteohub,2013-06-16 01:22:00,
2013-06-15 20:27:00,83.5,70.9,29.99,East,87,1.0,6.0,66,0.00,,,0.00,meteohub,2013-06-16 01:27:00,
2013-06-15 20:32:00,83.1,70.2,29.99,East,83,3.0,6.0,65,0.00,,,0.00,meteohub,2013-06-16 01:32:00,
2013-06-15 20:37:00,83.1,70.5,29.99,East,90,2.0,5.0,66,0.00,,,0.00,meteohub,2013-06-16 01:37:00,
2013-06-15 20:42:00,82.8,70.2,30.00,East,91,2.0,5.0,66,0.00,,,0.00,meteohub,2013-06-16 01:42:00,
2013-06-15 20:47:00,82.6,70.0,30.00,East,93,2.0,5.0,66,0.00,,,0.00,meteohub,2013-06-16 01:47:00,
2013-06-15 20:52:00,82.8,70.7,30.01,East,94,0.0,5.0,67,0.00,,,0.00,meteohub,2013-06-16 01:52:00,
2013-06-15 20:57:00,82.6,70.5,30.01,East,94,0.0,5.0,67,0.00,,,0.00,meteohub,2013-06-16 01:57:00,
2013-06-15 21:02:00,82.6,70.0,30.01,East,96,0.0,3.0,66,0.00,,,0.00,meteohub,2013-06-16 02:02:00,
2013-06-15 21:07:00,82.4,69.4,30.01,East,96,1.0,2.0,65,0.00,,,0.00,meteohub,2013-06-16 02:07:00,
2013-06-15 21:12:00,82.6,69.1,30.02,ESE,119,2.0,2.0,64,0.00,,,0.00,meteohub,2013-06-16 02:12:00,
2013-06-15 21:17:00,82.6,69.6,30.02,ESE,119,0.0,3.0,65,0.00,,,0.00,meteohub,2013-06-16 02:17:00,
2013-06-15 21:22:00,82.8,69.8,30.02,ESE,119,0.0,3.0,65,0.00,,,0.00,meteohub,2013-06-16 02:22:00,
2013-06-15 21:27:00,82.6,69.6,30.03,South,183,0.0,2.0,65,0.00,,,0.00,meteohub,2013-06-16 02:27:00,
2013-06-15 21:32:00,82.6,69.6,30.03,South,183,0.0,3.0,65,0.00,,,0.00,meteohub,2013-06-16 02:32:00,
2013-06-15 21:37:00,82.4,70.0,30.03,South,183,0.0,3.0,66,0.00,,,0.00,meteohub,2013-06-16 02:37:00,
2013-06-15 21:42:00,82.4,70.7,30.03,South,183,0.0,1.0,68,0.00,,,0.00,meteohub,2013-06-16 02:42:00,
2013-06-15 21:47:00,82.2,70.5,30.03,South,183,0.0,0.0,68,0.00,,,0.00,meteohub,2013-06-16 02:47:00,
2013-06-15 21:52:00,82.2,71.1,30.03,South,183,0.0,1.0,69,0.00,,,0.00,meteohub,2013-06-16 02:52:00,
2013-06-15 21:57:00,82.0,70.9,30.04,South,183,0.0,1.0,69,0.00,,,0.00,meteohub,2013-06-16 02:57:00,
2013-06-15 22:02:00,82.0,71.8,30.04,South,183,0.0,1.0,71,0.00,,,0.00,meteohub,2013-06-16 03:02:00,
2013-06-15 22:07:00,81.9,72.0,30.04,South,183,0.0,1.0,72,0.00,,,0.00,meteohub,2013-06-16 03:07:00,
2013-06-15 22:12:00,81.7,71.8,30.04,South,183,0.0,1.0,72,0.00,,,0.00,meteohub,2013-06-16 03:12:00,
2013-06-15 22:17:00,81.7,72.5,30.04,South,183,0.0,1.0,74,0.00,,,0.00,meteohub,2013-06-16 03:17:00,
2013-06-15 22:22:00,81.5,72.3,30.05,South,183,0.0,1.0,74,0.00,,,0.00,meteohub,2013-06-16 03:22:00,
2013-06-15 22:27:00,81.3,72.3,30.05,South,183,0.0,1.0,74,0.00,,,0.00,meteohub,2013-06-16 03:27:00,
2013-06-15 22:32:00,81.1,72.5,30.05,South,183,0.0,1.0,75,0.00,,,0.00,meteohub,2013-06-16 03:32:00,
2013-06-15 22:37:00,81.0,72.3,30.05,South,183,0.0,0.0,75,0.00,,,0.00,meteohub,2013-06-16 03:37:00,
2013-06-15 22:42:00,80.6,72.3,30.05,South,183,0.0,0.0,76,0.00,,,0.00,meteohub,2013-06-16 03:42:00,
2013-06-15 22:47:00,80.2,72.3,30.05,South,183,0.0,0.0,77,0.00,,,0.00,meteohub,2013-06-16 03:47:00,
2013-06-15 22:52:00,80.1,73.0,30.05,South,183,0.0,1.0,79,0.00,,,0.00,meteohub,2013-06-16 03:52:00,
2013-06-15 22:57:00,80.1,73.4,30.04,South,183,0.0,1.0,80,0.00,,,0.00,meteohub,2013-06-16 03:57:00,
2013-06-15 23:01:00,79.9,73.6,30.04,South,183,0.0,1.0,81,0.00,,,0.00,meteohub,2013-06-16 04:01:00,
2013-06-15 23:02:00,79.9,73.6,30.04,South,183,0.0,1.0,81,0.00,,,0.00,meteohub,2013-06-16 04:02:00,
2013-06-15 23:06:00,79.9,73.9,30.04,South,183,0.0,1.0,82,0.00,,,0.00,meteohub,2013-06-16 04:06:00,
2013-06-15 23:07:00,79.9,73.9,30.04,South,183,0.0,1.0,82,0.00,,,0.00,meteohub,2013-06-16 04:07:00,
2013-06-15 23:12:00,79.9,73.9,30.04,South,183,0.0,1.0,82,0.00,,,0.00,meteohub,2013-06-16 04:12:00,
2013-06-15 23:17:00,79.7,74.1,30.04,South,183,0.0,1.0,83,0.00,,,0.00,meteohub,2013-06-16 04:17:00,
2013-06-15 23:22:00,79.7,74.1,30.04,South,183,1.0,0.0,83,0.00,,,0.00,meteohub,2013-06-16 04:22:00,
2013-06-15 23:27:00,79.5,73.9,30.04,South,182,1.0,1.0,83,0.00,,,0.00,meteohub,2013-06-16 04:27:00,
2013-06-15 23:32:00,79.5,74.3,30.04,SSE,162,1.0,1.0,84,0.00,,,0.00,meteohub,2013-06-16 04:32:00,
2013-06-15 23:37:00,79.5,74.3,30.04,SSE,162,1.0,2.0,84,0.00,,,0.00,meteohub,2013-06-16 04:37:00,
2013-06-15 23:42:00,79.5,74.3,30.04,SSE,162,0.0,2.0,84,0.00,,,0.00,meteohub,2013-06-16 04:42:00,
2013-06-15 23:47:00,79.5,74.7,30.04,SE,140,0.0,2.0,85,0.00,,,0.00,meteohub,2013-06-16 04:47:00,
2013-06-15 23:53:00,79.3,74.5,30.04,SE,140,0.0,3.0,85,0.00,,,0.00,meteohub,2013-06-16 04:53:00,
2013-06-15 23:58:00,79.3,74.5,30.04,ESE,108,0.0,3.0,85,0.00,,,0.00,meteohub,2013-06-16 04:58:00,